Location: Colle Santa Colomba
(42.0333°N, 12.5667°E)
Time: 23:48:39
(UTC+00:00)

SAOCOM 1-B - Visible Passes

Search period start: 10 August 2022 00:00
Search period end: 20 August 2022 00:00
Orbit: 621 x 623 km, 97.9° (Epoch: 10 August)

Date Brightness Start Highest point End Pass type
(mag) Time Alt. Az. Time Alt. Az. Time Alt. Az.
11 Aug ? 03:10:56 10° E 03:12:53 13° ENE 03:14:51 10° NE visible
12 Aug ? 03:27:39 10° ESE 03:30:43 19° ENE 03:33:48 10° NNE visible
13 Aug ? 18:44:42 10° NNW 18:47:13 15° WNW 18:49:45 10° W visible
14 Aug ? 19:04:42 10° NW 19:05:02 10° WNW 19:05:21 10° WNW visible
16 Aug ? 03:05:41 10° ENE 03:06:59 11° ENE 03:08:17 10° NE visible
17 Aug ? 03:22:01 10° ESE 03:24:48 17° ENE 03:27:34 10° NNE visible
18 Aug ? 03:39:07 10° ESE 03:42:39 25° ENE 03:46:11 10° NNE visible
18 Aug ? 18:38:25 10° NNW 18:41:18 17° WNW 18:44:10 10° WSW visible
19 Aug ? 18:57:35 10° NW 18:59:06 12° WNW 19:00:38 10° W visible
